Location: Warszawa
(52.2500°N, 21.0000°E)
Time: 21:29:14
(UTC+02:00)

AO-91 - Pass Details

Date: 29 April 2024
Orbit: 441 x 737 km, 97.6° (Epoch: 20 May)

Event Time Altitude Azimuth Distance (km) Brightness Sun altitude
Rises 23:11:35 0° 5° (N) 2,454 ? -20.6°
Reaches altitude 10° 23:13:43 10° 355° (N) 1,590 ? -20.7°
Maximum altitude 23:16:42 30° 292° (WNW) 855 ? -20.9°
Enters shadow 23:18:15 21° 248° (WSW) 1,111 ? -21.0°
